GW1885 Weather Reports


Display with metric or nautical units.
time (UTC)temp
F
wind
direction
speed
MPH
gust
MPH
rain 1hr
in
rain 24hr
in
rain mn
in
humidity
%
barometer
mb
20260507082005 45 2 1.0 10.0 0.00 0.74 0.01 83 1013.7
20260507081504 45 12 1.0 7.0 0.00 0.75 0.01 84 1013.7
20260507081004 45 348 1.0 6.0 0.00 0.76 0.01 85 1013.7
20260507080505 45 328 1.0 6.0 0.00 0.77 0.01 85 1013.5
20260507080006 45 324 1.0 9.0 0.00 0.78 0.01 87 1013.6
20260507075525 45 337 1.0 9.0 0.00 0.80 0.01 87 1013.5
20260507075004 44 343 1.0 7.0 0.00 0.81 0.01 86 1013.4
20260507074505 44 330 1.0 4.0 0.00 0.82 0.01 89 1013.4
20260507074005 44 323 1.0 4.0 0.00 0.83 0.01 89 1013.4
20260507073505 44 308 1.0 4.0 0.00 0.84 0.01 87 1013.3
20260507073005 44 304 1.0 7.0 0.00 0.85 0.01 88 1013.2
20260507072504 44 332 2.0 9.0 0.00 0.87 0.01 88 1013.2
20260507072006 44 351 2.0 9.0 0.00 0.87 0.01 88 1013.2
20260507071504 44 345 1.0 4.0 0.00 0.88 0.01 90 1013.2
20260507071007 44 337 1.0 4.0 0.00 0.88 0.01 90 1013.3
20260507070504 44 342 1.0 4.0 0.00 0.89 0.01 91 1013.1
20260507070026 43 330 1.0 4.0 0.00 0.89 0.01 92 1013.1
20260507065504 43 335 1.0 3.0 0.00 0.89 0.01 91 1013.1
20260507065004 43 351 1.0 3.0 0.00 0.89 0.01 93 1013.0
20260507064505 43 348 1.0 3.0 0.00 0.89 0.01 94 1013.0
20260507064005 43 343 1.0 3.0 0.00 0.89 0.01 94 1013.0
20260507063504 42 350 1.0 3.0 0.00 0.89 0.01 95 1013.0
20260507063025 42 357 1.0 6.0 0.00 0.89 0.01 96 1012.8
20260507062505 42 321 1.0 6.0 0.00 0.89 0.01 96 1012.6
20260507062004 42 285 1.0 6.0 0.00 0.89 0.01 97 1012.5
20260507061505 42 318 1.0 4.0 0.00 0.89 0.01 98 1012.5
20260507061004 42 334 1.0 7.0 0.00 0.90 0.01 99 1012.5
20260507060505 42 330 1.0 7.0 0.00 0.90 0.01 99 1012.7
20260507060006 41 326 1.0 4.0 0.00 0.90 0.01 99 1012.6
20260507055505 41 328 1.0 4.0 0.00 0.90 0.01 99 1012.6
20260507055026 41 328 1.0 3.0 0.00 0.90 0.01 99 1012.5
20260507054526 41 332 1.0 3.0 0.00 0.90 0.01 99 1012.4
20260507054005 41 333 1.0 4.0 0.00 0.90 0.01 99 1012.3
20260507053504 41 331 1.0 4.0 0.00 0.90 0.01 99 1012.1
20260507053005 41 334 1.0 6.0 0.00 0.90 0.01 99 1012.2
20260507052504 41 340 1.0 6.0 0.00 0.90 0.01 99 1012.0
20260507052005 41 339 1.0 13.0 0.00 0.90 0.01 99 1012.1
20260507051505 41 334 1.0 13.0 0.00 0.90 0.01 99 1011.9
20260507051004 41 326 1.0 4.0 0.00 0.90 0.01 99 1011.8
20260507050505 41 319 1.0 3.0 0.00 0.90 0.01 99 1011.8
20260507050005 41 332 1.0 4.0 0.00 0.90 0.01 99 1011.6
20260507045504 41 335 1.0 4.0 0.00 0.90 0.01 99 1011.9
20260507045004 40 328 1.0 4.0 0.00 0.90 0.01 99 1011.8
20260507044525 41 319 1.0 4.0 0.00 0.90 0.01 99 1011.8
20260507044026 40 317 1.0 4.0 0.00 0.90 0.01 99 1011.8
20260507043526 40 330 1.0 3.0 0.00 0.90 0.01 99 1011.7
20260507043004 40 304 1.0 3.0 0.00 0.90 0.01 99 1011.5
20260507042505 40 305 1.0 4.0 0.00 0.90 0.01 99 1011.7
20260507042004 40 333 1.0 6.0 0.00 0.90 0.01 99 1011.6
20260507041504 40 324 1.0 6.0 0.00 0.90 0.01 99 1011.6
20260507041005 40 326 1.0 6.0 0.00 0.90 0.01 99 1011.5
20260507040505 40 321 1.0 6.0 0.00 0.90 0.01 99 1011.3
20260507040005 40 311 0.0 3.0 0.00 0.90 0.01 99 1011.1
20260507035504 40 304 1.0 3.0 0.00 0.90 0.01 99 1011.1
20260507035025 40 285 1.0 4.0 0.00 0.90 0.01 99 1011.1
20260507034504 40 293 1.0 4.0 0.00 0.90 0.01 99 1011.1
20260507034025 40 310 1.0 4.0 0.00 0.90 0.01 99 1011.1
20260507033525 40 303 1.0 3.0 0.00 0.90 0.01 99 1010.9
20260507033004 40 328 1.0 7.0 0.00 0.90 0.01 99 1011.0
20260507032505 40 347 1.0 7.0 0.00 0.90 0.01 99 1011.1
20260507032025 40 351 1.0 3.0 0.00 0.90 0.01 99 1011.1
20260507031525 40 327 1.0 6.0 0.00 0.90 0.01 99 1011.3
20260507031004 40 307 1.0 6.0 0.00 0.90 0.01 99 1011.0
20260507030504 40 292 0.0 4.0 0.00 0.90 0.01 99 1011.1
20260507030004 40 309 1.0 4.0 0.00 0.90 0.01 99 1010.9
20260507025504 40 324 1.0 8.0 0.00 0.90 0.01 99 1011.1
20260507025025 40 317 1.0 8.0 0.00 0.90 0.01 99 1011.1
20260507024505 41 313 1.0 4.0 0.00 0.90 0.01 99 1011.0
20260507024004 41 315 1.0 6.0 0.00 0.90 0.01 99 1010.9
20260507023504 41 327 1.0 6.0 0.00 0.90 0.01 99 1010.8
20260507023004 41 346 1.0 4.0 0.00 0.90 0.01 99 1010.8
20260507022505 41 331 1.0 4.0 0.00 0.90 0.01 99 1011.0
20260507022004 41 298 1.0 4.0 0.00 0.90 0.01 99 1010.8
20260507021504 41 289 1.0 4.0 0.00 0.90 0.01 99 1010.6
20260507021004 41 340 1.0 6.0 0.00 0.90 0.01 99 1010.9
20260507020505 41 12 1.0 7.0 0.00 0.90 0.01 99 1010.9
20260507020005 41 349 1.0 7.0 0.00 0.90 0.01 99 1011.0
20260507015504 41 339 1.0 3.0 0.00 0.90 0.01 99 1010.9
20260507015004 41 332 1.0 3.0 0.00 0.90 0.01 99 1010.9
20260507014504 41 322 1.0 3.0 0.00 0.90 0.01 99 1010.9
20260507014004 41 337 1.0 6.0 0.00 0.90 0.01 99 1010.9
20260507013504 41 347 1.0 6.0 0.00 0.90 0.01 99 1010.8
20260507013005 40 339 1.0 6.0 0.00 0.90 0.01 99 1010.9
20260507012504 40 326 1.0 6.0 0.00 0.90 0.01 99 1010.7
20260507012004 41 324 1.0 6.0 0.00 0.90 0.01 99 1010.5
20260507011525 40 340 1.0 7.0 0.00 0.90 0.01 99 1010.5
20260507011005 40 317 1.0 7.0 0.00 0.90 0.01 99 1010.6
20260507010504 40 314 1.0 9.0 0.00 0.90 0.01 99 1010.4
20260507010026 40 346 1.0 9.0 0.00 0.90 0.01 99 1010.4
20260507005504 40 341 1.0 4.0 0.00 0.90 0.01 99 1010.2
20260507005004 40 336 1.0 4.0 0.00 0.90 0.01 99 1010.2
20260507004504 40 325 1.0 4.0 0.00 0.90 0.01 99 1010.1
20260507004005 40 315 0.0 3.0 0.00 0.90 0.01 99 1010.3
20260507003505 40 337 1.0 4.0 0.00 0.90 0.01 99 1010.3
20260507003025 40 352 1.0 4.0 0.00 0.90 0.01 99 1010.3
20260507002504 40 357 1.0 4.0 0.00 0.90 0.01 99 1010.2
20260507002005 40 4 1.0 6.0 0.00 0.90 0.01 99 1010.2
20260507001525 41 342 1.0 6.0 0.00 0.90 0.01 99 1010.3
20260507001005 41 346 1.0 6.0 0.00 0.90 0.01 99 1010.3
20260507000504 41 360 1.0 6.0 0.00 0.90 0.01 99 1010.2
20260507000005 41 329 1.0 9.0 0.00 0.90 0.01 99 1010.0
20260506235505 41 328 2.0 9.0 0.00 0.90 0.01 99 1009.9
20260506235004 41 337 2.0 6.0 0.00 0.90 0.01 99 1010.0
20260506234504 41 336 2.0 8.0 0.00 0.90 0.01 99 1009.9
20260506234005 41 332 2.0 8.0 0.00 0.90 0.01 99 1010.0
20260506233526 41 324 2.0 6.0 0.00 0.90 0.01 99 1010.1
20260506233004 41 331 2.0 6.0 0.00 0.90 0.01 99 1010.1
20260506232504 41 348 2.0 7.0 0.00 0.90 0.01 99 1010.2
20260506232005 41 344 2.0 7.0 0.00 0.90 0.00 99 1010.2
20260506231505 41 349 1.0 6.0 0.00 0.90 0.00 99 1010.2
20260506231004 42 358 1.0 4.0 0.00 0.90 0.00 99 1010.3
20260506230525 42 312 1.0 4.0 0.00 0.90 0.00 99 1010.4
20260506230004 42 313 1.0 7.0 0.00 0.90 0.00 99 1010.3
20260506225525 42 319 1.0 7.0 0.00 0.90 0.00 99 1010.4
20260506225005 42 294 1.0 7.0 0.00 0.90 0.00 99 1010.1
20260506224505 42 307 1.0 3.0 0.00 0.90 0.00 99 1010.3
20260506224004 42 356 1.0 4.0 0.01 0.90 0.00 99 1010.3
20260506223505 42 11 1.0 4.0 0.01 0.90 0.00 99 1010.3
20260506223005 42 5 0.0 4.0 0.01 0.90 0.00 99 1010.3
20260506222504 42 356 0.0 6.0 0.01 0.90 0.00 99 1010.2
20260506222004 42 349 1.0 6.0 0.00 0.89 0.00 99 1010.2
20260506221505 42 345 1.0 3.0 0.00 0.89 0.00 99 1010.2
20260506221004 42 346 0.0 3.0 0.00 0.89 0.00 99 1010.1
20260506220526 42 341 1.0 3.0 0.00 0.89 0.00 99 1010.1
20260506220005 42 297 1.0 3.0 0.00 0.89 0.00 99 1010.0
20260506215504 42 286 1.0 3.0 0.00 0.89 0.89 99 1009.9
20260506215026 42 294 1.0 6.0 0.00 0.89 0.89 99 1010.1
20260506214503 42 305 1.0 6.0 0.00 0.89 0.89 99 1009.9
20260506214025 42 338 1.0 6.0 0.00 0.89 0.89 99 1009.9
20260506213505 42 335 1.0 6.0 0.00 0.89 0.89 99 1009.8
20260506213004 42 326 1.0 4.0 0.00 0.89 0.89 99 1009.8
20260506212504 42 317 1.0 3.0 0.00 0.89 0.89 99 1009.9
20260506212025 42 300 1.0 3.0 0.00 0.89 0.89 99 1009.8
20260506211505 42 291 0.0 4.0 0.00 0.89 0.89 99 1009.8
20260506211004 42 292 0.0 4.0 0.00 0.89 0.89 99 1010.0
20260506210504 42 309 0.0 2.0 0.00 0.89 0.89 99 1009.8
20260506210025 42 309 1.0 4.0 0.00 0.89 0.89 99 1009.9
20260506205504 42 279 1.0 4.0 0.00 0.89 0.89 99 1009.7
20260506205004 42 245 0.0 2.0 0.00 0.89 0.89 99 1009.7
20260506204504 42 252 1.0 3.0 0.00 0.89 0.89 99 1009.5
20260506204004 42 302 1.0 4.0 0.00 0.89 0.89 99 1009.5
20260506203524 42 323 1.0 4.0 0.00 0.89 0.89 99 1009.6
20260506203005 42 321 1.0 4.0 0.00 0.89 0.89 99 1009.6
20260506202504 42 347 1.0 6.0 0.00 0.89 0.89 99 1009.6
20260506202004 41 353 1.0 6.0 0.00 0.89 0.89 99 1009.5
20260506201504 42 30 1.0 6.0 0.00 0.89 0.89 99 1009.4
20260506201025 41 1 1.0 6.0 0.00 0.89 0.89 99 1009.2
20260506200525 42 297 1.0 4.0 0.00 0.89 0.89 99 1009.3
20260506200004 42 285 1.0 4.0 0.00 0.89 0.89 99 1009.1
20260506195524 41 281 1.0 4.0 0.00 0.89 0.89 99 1009.3
20260506195005 42 246 1.0 3.0 0.00 0.89 0.89 99 1009.2
20260506194526 42 250 1.0 3.0 0.00 0.89 0.89 99 1009.1
20260506194004 41 43 1.0 4.0 0.00 0.89 0.89 99 1009.2
20260506193504 42 33 1.0 6.0 0.00 0.89 0.89 99 1009.2
20260506193004 42 333 1.0 6.0 0.00 0.89 0.89 99 1009.3
20260506192524 42 329 1.0 4.0 0.00 0.89 0.89 99 1009.3
20260506192004 41 315 1.0 4.0 0.00 0.89 0.89 99 1009.2
20260506191504 42 320 1.0 3.0 0.00 0.89 0.89 99 1009.1
20260506191004 42 326 0.0 4.0 0.00 0.89 0.89 99 1009.1
20260506190503 41 326 1.0 4.0 0.00 0.89 0.89 99 1009.0
20260506190005 42 341 1.0 4.0 0.00 0.89 0.89 99 1008.9
20260506185504 41 305 1.0 7.0 0.00 0.89 0.89 99 1008.9
20260506185005 41 344 1.0 7.0 0.00 0.89 0.89 99 1008.9
20260506184504 42 2 1.0 4.0 0.01 0.89 0.89 99 1008.8
20260506184004 41 243 1.0 7.0 0.00 0.89 0.89 99 1009.0
20260506183524 42 270 1.0 7.0 0.00 0.89 0.89 99 1008.8
20260506183005 42 267 1.0 4.0 0.01 0.89 0.89 99 1008.8
20260506182504 41 246 1.0 6.0 0.01 0.89 0.89 99 1008.8
20260506182004 41 244 1.0 6.0 0.01 0.89 0.89 99 1008.6
20260506181524 42 274 1.0 4.0 0.01 0.89 0.89 99 1008.9
20260506181004 41 294 1.0 3.0 0.02 0.89 0.89 99 1008.8
20260506180503 42 124 1.0 3.0 0.02 0.89 0.89 99 1008.7
20260506180006 42 74 1.0 7.0 0.02 0.89 0.89 99 1008.7
20260506175525 42 14 1.0 7.0 0.02 0.89 0.89 99 1008.5
20260506175004 41 345 1.0 7.0 0.02 0.89 0.89 99 1008.5
20260506174505 41 344 1.0 7.0 0.02 0.88 0.88 99 1008.4
20260506174004 41 13 1.0 4.0 0.02 0.88 0.88 99 1008.3
20260506173525 41 337 1.0 4.0 0.02 0.88 0.88 99 1008.3
20260506173025 41 332 1.0 4.0 0.02 0.88 0.88 99 1008.5
20260506172504 42 12 1.0 6.0 0.03 0.88 0.88 99 1008.4
20260506172026 42 2 1.0 7.0 0.02 0.87 0.87 99 1008.3
20260506171504 42 323 1.0 7.0 0.02 0.87 0.87 99 1008.2
20260506171003 42 319 1.0 2.0 0.02 0.87 0.87 99 1008.4
20260506170505 42 274 1.0 2.0 0.02 0.87 0.87 99 1008.5
20260506170005 42 286 1.0 4.0 0.02 0.87 0.87 99 1008.4
20260506165525 41 355 1.0 11.0 0.02 0.87 0.87 99 1008.4
20260506165003 42 16 2.0 11.0 0.02 0.86 0.86 99 1008.4
20260506164505 41 26 1.0 9.0 0.02 0.86 0.86 99 1008.2
20260506164004 42 18 1.0 8.0 0.02 0.86 0.86 99 1008.2
20260506163503 42 359 1.0 4.0 0.02 0.86 0.86 99 1008.1
20260506163005 42 326 1.0 6.0 0.01 0.85 0.85 99 1008.1
20260506162504 42 323 1.0 8.0 0.01 0.85 0.85 99 1008.1
20260506162004 42 332 1.0 8.0 0.01 0.85 0.85 99 1008.0
20260506161505 42 347 1.0 6.0 0.02 0.85 0.85 99 1008.2
20260506161004 42 29 1.0 6.0 0.02 0.85 0.85 99 1008.1
20260506160503 42 17 1.0 6.0 0.02 0.85 0.85 99 1008.1
20260506160004 42 339 1.0 4.0 0.02 0.85 0.85 99 1008.1
20260506155504 42 312 1.0 4.0 0.02 0.85 0.85 99 1008.0
20260506155005 42 280 1.0 6.0 0.02 0.85 0.85 99 1008.0
20260506154504 42 302 1.0 6.0 0.02 0.85 0.85 99 1007.9
20260506154025 42 23 2.0 8.0 0.03 0.84 0.84 99 1007.9
20260506153503 42 16 2.0 8.0 0.03 0.84 0.84 99 1007.8
20260506153003 42 318 1.0 8.0 0.04 0.84 0.84 99 1007.8
20260506152504 42 320 1.0 6.0 0.03 0.84 0.84 99 1007.9
20260506152003 42 329 1.0 4.0 0.03 0.84 0.84 99 1007.9
20260506151504 42 316 1.0 7.0 0.03 0.83 0.83 99 1008.0
20260506151004 42 322 1.0 7.0 0.03 0.83 0.83 99 1007.8
20260506150503 42 330 1.0 6.0 0.03 0.83 0.83 99 1007.9
20260506150026 42 293 1.0 4.0 0.03 0.83 0.83 99 1008.0
20260506145504 42 289 1.0 2.0 0.03 0.83 0.83 99 1007.8
20260506145005 42 300 1.0 2.0 0.03 0.83 0.82 99 1008.0
20260506144504 42 6 1.0 6.0 0.04 0.83 0.82 99 1008.0
20260506144024 42 83 1.0 6.0 0.03 0.82 0.82 99 1008.1
20260506143503 42 277 1.0 3.0 0.03 0.81 0.81 99 1008.1
20260506143005 42 328 1.0 3.0 0.04 0.81 0.81 99 1008.1
20260506142504 42 55 1.0 3.0 0.04 0.81 0.81 99 1008.1
20260506142003 42 46 1.0 2.0 0.05 0.81 0.81 99 1008.1
20260506141504 42 323 1.0 3.0 0.05 0.81 0.81 98 1008.3
20260506141003 42 354 1.0 6.0 0.05 0.81 0.80 98 1008.1
20260506140503 42 54 1.0 6.0 0.05 0.81 0.80 98 1008.1
20260506140005 42 229 1.0 3.0 0.05 0.81 0.80 98 1008.2
20260506135504 42 249 1.0 3.0 0.04 0.80 0.80 98 1008.0
20260506135004 42 9 1.0 6.0 0.04 0.80 0.79 98 1007.8
20260506134504 42 347 1.0 6.0 0.04 0.80 0.79 98 1008.1
20260506134004 42 335 1.0 4.0 0.03 0.79 0.78 98 1007.8
20260506133504 42 359 1.0 3.0 0.03 0.79 0.78 98 1008.0
20260506133003 42 350 1.0 4.0 0.02 0.78 0.77 98 1007.7
20260506132504 42 326 1.0 4.0 0.01 0.77 0.76 98 1007.8
20260506132005 42 288 1.0 6.0 0.01 0.77 0.76 98 1007.8
20260506131504 42 335 2.0 8.0 0.00 0.76 0.76 98 1008.0
20260506131004 42 36 1.0 8.0 0.00 0.76 0.75 98 1008.0
20260506130503 42 48 1.0 8.0 0.00 0.76 0.75 98 1007.9
20260506130005 41 55 1.0 8.0 0.00 0.76 0.75 98 1007.9
20260506125503 41 94 1.0 8.0 0.00 0.76 0.75 98 1007.6
20260506125003 41 171 1.0 4.0 0.00 0.77 0.75 98 1007.8
20260506124503 41 292 1.0 3.0 0.00 0.77 0.75 98 1007.8
20260506124004 41 335 1.0 3.0 0.00 0.77 0.75 98 1008.0
20260506123503 41 30 1.0 3.0 0.00 0.78 0.75 98 1007.9
20260506123024 41 47 1.0 6.0 0.00 0.78 0.75 98 1007.9
20260506122504 41 45 2.0 7.0 0.01 0.78 0.75 99 1007.7
20260506122003 41 21 1.0 7.0 0.02 0.79 0.75 99 1007.7
20260506121503 41 5 2.0 9.0 0.02 0.79 0.75 99 1007.7
20260506121004 41 9 2.0 9.0 0.02 0.80 0.75 99 1007.6
20260506120503 41 327 1.0 8.0 0.02 0.80 0.75 99 1007.5
20260506120005 41 336 2.0 7.0 0.02 0.80 0.75 99 1007.6
20260506115525 41 8 2.0 9.0 0.02 0.80 0.75 99 1007.8
20260506115003 41 17 2.0 9.0 0.02 0.80 0.75 99 1007.8
20260506114504 41 15 1.0 6.0 0.03 0.81 0.75 99 1007.7
20260506114004 41 3 2.0 8.0 0.03 0.81 0.75 99 1007.8
20260506113504 41 358 2.0 10.0 0.04 0.82 0.75 99 1007.6
20260506113004 41 48 2.0 10.0 0.06 0.82 0.75 99 1007.8
20260506112504 42 57 2.0 7.0 0.06 0.82 0.74 99 1007.6
20260506112024 42 46 2.0 7.0 0.07 0.82 0.74 99 1007.4
20260506111503 42 35 1.0 6.0 0.07 0.81 0.73 99 1007.2
20260506111004 42 16 1.0 8.0 0.10 0.82 0.73 99 1007.5
20260506110503 42 31 2.0 9.0 0.13 0.82 0.73 99 1007.2
20260506110024 43 52 2.0 9.0 0.16 0.82 0.73 99 1007.3
20260506105525 43 30 1.0 6.0 0.18 0.82 0.73 99 1007.2
20260506105004 43 328 2.0 7.0 0.20 0.82 0.73 99 1007.2
20260506104504 43 324 2.0 11.0 0.21 0.81 0.72 99 1007.2
20260506104004 43 341 2.0 11.0 0.25 0.81 0.72 99 1006.9
20260506103503 43 340 1.0 7.0 0.26 0.80 0.70 99 1007.3
20260506103025 44 343 1.0 8.0 0.26 0.78 0.69 99 1007.3
20260506102504 44 359 1.0 8.0 0.29 0.77 0.68 99 1007.2
20260506102004 44 310 1.0 4.0 0.30 0.76 0.67 99 1007.4
20260506101524 44 306 1.0 4.0 0.32 0.75 0.66 99 1007.2
20260506101003 44 1 1.0 6.0 0.31 0.72 0.63 99 1007.2
20260506100503 44 14 1.0 6.0 0.30 0.69 0.60 99 1007.3
20260506100004 44 12 1.0 3.0 0.30 0.67 0.57 99 1007.6
20260506095504 44 20 1.0 4.0 0.29 0.64 0.55 99 1007.9
20260506095003 44 8 1.0 4.0 0.29 0.62 0.53 99 1008.0
20260506094504 43 344 1.0 3.0 0.28 0.60 0.51 99 1007.8
20260506094005 43 330 1.0 4.0 0.26 0.56 0.47 99 1008.1
20260506093503 43 327 1.0 4.0 0.25 0.54 0.45 99 1008.3
20260506093004 43 3 1.0 7.0 0.25 0.52 0.43 99 1008.2
20260506092504 44 37 1.0 7.0 0.22 0.48 0.39 98 1007.5
20260506092004 44 324 1.0 4.0 0.21 0.46 0.37 99 1007.7
20260506091503 44 311 1.0 3.0 0.19 0.43 0.34 99 1007.6
20260506091004 44 294 1.0 3.0 0.19 0.41 0.32 99 1007.6
20260506090503 45 274 1.0 4.0 0.17 0.39 0.30 98 1007.9
20260506090003 45 297 1.0 4.0 0.16 0.37 0.28 99 1008.0
20260506085524 45 317 1.0 3.0 0.16 0.35 0.26 98 1008.1
20260506085027 45 344 1.0 4.0 0.15 0.33 0.24 99 1007.7
20260506084525 45 331 1.0 4.0 0.15 0.32 0.23 98 1007.5
20260506084005 46 295 1.0 3.0 0.14 0.30 0.21 99 1007.5
20260506083527 46 300 1.0 3.0 0.14 0.29 0.20 98 1007.6
20260506083027 46 319 1.0 3.0 0.14 0.28 0.19 98 1007.6
20260506082504 46 298 1.0 3.0 0.13 0.26 0.17 98 1007.5